EW7704 Weather Reports


Display with metric or nautical units.
time (UTC)temp
F
wind
direction
speed
MPH
gust
MPH
rain 1hr
in
rain 24hr
in
rain mn
in
humidity
%
barometer
mb
20260906174051 79 34 2.0 3.0 0.00 0.00 0.00 57 1006.6
20260906173550 79 208 0.0 3.0 0.00 0.00 0.00 56 1006.6
20260906173057 79 5 0.0 3.0 0.00 0.00 0.00 59 1006.7
20260906172552 78 24 1.0 4.0 0.00 0.00 0.00 59 1006.6
20260906172051 77 230 1.0 4.0 0.00 0.00 0.00 60 1006.7
20260906171549 78 18 1.0 3.0 0.00 0.00 0.00 56 1006.9
20260906171047 77 249 2.0 4.0 0.00 0.00 0.00 60 1007.0
20260906170549 76 230 1.0 4.0 0.00 0.00 0.00 62 1007.0
20260906170046 75 228 1.0 3.0 0.00 0.00 0.00 63 1007.1
20260906165546 75 239 1.0 4.0 0.00 0.00 0.00 64 1007.2
20260906165049 75 64 1.0 4.0 0.00 0.00 0.00 62 1007.3
20260906164545 76 57 1.0 4.0 0.00 0.00 0.00 61 1007.2
20260906164045 76 219 1.0 3.0 0.00 0.00 0.00 63 1007.2
20260906163544 73 294 0.0 5.0 0.00 0.00 0.00 67 1007.3
20260906163045 74 250 2.0 5.0 0.00 0.00 0.00 65 1007.3
20260906162544 75 34 0.0 4.0 0.00 0.00 0.00 63 1007.1
20260906162043 75 94 1.0 4.0 0.00 0.00 0.00 65 1007.1
20260906161543 74 302 0.0 4.0 0.00 0.00 0.00 66 1007.1
20260906161042 74 24 1.0 5.0 0.00 0.00 0.00 65 1007.2
20260906160541 74 5 1.0 5.0 0.00 0.00 0.00 67 1007.0
20260906160040 73 12 1.0 4.0 0.00 0.00 0.00 69 1007.1
20260906155539 72 248 1.0 4.0 0.00 0.00 0.00 71 1007.1
20260906155038 72 360 2.0 3.0 0.00 0.00 0.00 68 1007.2
20260906154537 73 271 0.0 5.0 0.00 0.00 0.00 70 1007.3
20260906154036 71 240 2.0 5.0 0.00 0.00 0.00 70 1007.3
20260906153538 70 360 2.0 4.0 0.00 0.00 0.00 72 1007.3
20260906153036 71 46 2.0 7.0 0.00 0.00 0.00 72 1007.2
20260906152535 71 277 1.0 4.0 0.00 0.00 0.00 74 1007.3
20260906152035 69 9 1.0 6.0 0.00 0.00 0.00 76 1007.4
20260906151539 70 282 2.0 6.0 0.00 0.00 0.00 73 1007.5
20260906151034 70 193 1.0 4.0 0.00 0.00 0.00 74 1007.5
20260906150534 69 66 1.0 3.0 0.00 0.00 0.00 76 1007.5
20260906150033 68 243 1.0 3.0 0.00 0.00 0.00 79 1007.5
20260906145535 67 360 0.0 3.0 0.00 0.00 0.00 78 1007.6
20260906145032 68 10 1.0 4.0 0.00 0.00 0.00 78 1007.5
20260906144532 68 360 0.0 4.0 0.00 0.00 0.00 77 1007.6
20260906144034 68 326 0.0 4.0 0.00 0.00 0.00 78 1007.6
20260906143531 69 26 1.0 4.0 0.00 0.00 0.00 76 1007.6
20260906143130 68 9 1.0 4.0 0.00 0.00 0.00 78 1007.7
20260906142530 68 9 1.0 4.0 0.00 0.00 0.00 78 1007.7
20260906142030 67 248 0.0 3.0 0.00 0.00 0.00 80 1007.6
20260906141531 67 215 1.0 3.0 0.00 0.00 0.00 80 1007.6
20260906141029 67 219 1.0 3.0 0.00 0.00 0.00 79 1007.6
20260906140529 66 219 0.0 3.0 0.00 0.00 0.00 81 1007.7
20260906140029 65 242 0.0 3.0 0.00 0.00 0.00 81 1007.8
20260906135528 65 236 0.0 3.0 0.00 0.00 0.00 82 1007.7
20260906135027 65 239 1.0 3.0 0.00 0.00 0.00 82 1007.7
20260906134527 64 214 0.0 3.0 0.00 0.00 0.00 82 1007.6
20260906134026 63 221 1.0 3.0 0.00 0.00 0.00 83 1007.6
20260906133525 63 223 1.0 3.0 0.00 0.00 0.00 83 1007.6
20260906133026 62 232 0.0 3.0 0.00 0.00 0.00 84 1007.6
20260906132526 62 220 1.0 3.0 0.00 0.00 0.00 82 1007.7
20260906132026 63 217 0.0 3.0 0.00 0.00 0.00 82 1007.6
20260906131529 63 228 0.0 2.0 0.00 0.00 0.00 82 1007.7
20260906131025 63 227 0.0 3.0 0.00 0.00 0.00 82 1007.7
20260906130525 62 229 0.0 3.0 0.00 0.00 0.00 83 1007.7
20260906130025 62 205 0.0 2.0 0.00 0.00 0.00 83 1007.6
20260906125524 62 209 0.0 2.0 0.00 0.00 0.00 84 1007.5
20260906125024 61 213 0.0 1.0 0.00 0.00 0.00 85 1007.5
20260906124530 61 214 0.0 3.0 0.00 0.00 0.00 87 1007.5
20260906124024 60 213 1.0 3.0 0.00 0.00 0.00 88 1007.6
20260906123522 60 234 0.0 2.0 0.00 0.00 0.00 89 1007.5
20260906123033 59 226 0.0 2.0 0.00 0.00 0.00 89 1007.4
20260906122523 59 276 0.0 0.0 0.00 0.00 0.00 88 1007.3
20260906122023 59 278 0.0 0.0 0.00 0.00 0.00 87 1007.3
20260906121523 59 275 0.0 0.0 0.00 0.00 0.00 86 1007.3
20260906121021 60 279 0.0 0.0 0.00 0.00 0.00 86 1007.3
20260906120522 61 283 0.0 1.0 0.00 0.00 0.00 86 1007.3
20260906120020 61 282 0.0 1.0 0.00 0.00 0.00 88 1007.3
20260906115520 61 281 0.0 0.0 0.00 0.00 0.00 88 1007.3
20260906115019 61 284 0.0 1.0 0.00 0.00 0.00 88 1007.2
20260906114521 61 283 0.0 1.0 0.00 0.00 0.00 89 1007.3
20260906114020 61 288 0.0 1.0 0.00 0.00 0.00 89 1007.5
20260906113519 61 11 0.0 0.0 0.00 0.00 0.00 89 1007.5
20260906113016 61 11 0.0 0.0 0.00 0.00 0.00 88 1007.3
20260906112516 61 11 0.0 1.0 0.00 0.00 0.00 86 1007.1
20260906112017 61 11 0.0 1.0 0.00 0.00 0.00 87 1007.1
20260906111516 61 11 0.0 1.0 0.00 0.00 0.00 87 1007.2
20260906111016 62 11 0.0 0.0 0.00 0.00 0.00 87 1007.2
20260906110517 62 11 0.0 1.0 0.00 0.00 0.00 87 1007.2
20260906110017 62 11 0.0 1.0 0.00 0.00 0.00 86 1007.1
20260906105515 62 11 0.0 1.0 0.00 0.00 0.00 87 1007.0
20260906105016 62 11 0.0 0.0 0.00 0.00 0.00 86 1007.0
20260906104515 62 11 0.0 1.0 0.00 0.00 0.00 87 1006.9
20260906104014 62 11 0.0 1.0 0.00 0.00 0.00 85 1007.0
20260906103513 62 11 0.0 1.0 0.00 0.00 0.00 85 1007.1
20260906103031 62 11 0.0 1.0 0.00 0.00 0.00 85 1007.1
20260906102515 62 11 0.0 1.0 0.00 0.00 0.00 84 1007.0
20260906102011 62 11 0.0 1.0 0.00 0.00 0.00 84 1007.0
20260906101511 63 11 0.0 1.0 0.00 0.00 0.00 83 1007.0
20260906101013 63 11 0.0 1.0 0.00 0.00 0.00 83 1006.9
20260906100509 63 11 0.0 1.0 0.00 0.00 0.00 81 1007.0
20260906100021 63 11 0.0 1.0 0.00 0.00 0.00 81 1007.0
20260906095509 64 11 0.0 1.0 0.00 0.00 0.00 81 1007.1
20260906095007 64 11 0.0 0.0 0.00 0.00 0.00 81 1007.3
20260906094507 63 11 0.0 0.0 0.00 0.00 0.00 81 1007.1
20260906094007 63 11 0.0 0.0 0.00 0.00 0.00 81 1007.1
20260906093506 63 11 0.0 0.0 0.00 0.00 0.00 80 1007.1
20260906093004 64 14 0.0 0.0 0.00 0.00 0.00 79 1007.1
20260906092504 64 13 0.0 1.0 0.00 0.00 0.00 78 1007.0
20260906092004 64 12 0.0 2.0 0.00 0.00 0.00 78 1006.9
20260906091501 65 12 0.0 2.0 0.00 0.00 0.00 77 1006.8
20260906091001 65 12 0.0 2.0 0.00 0.00 0.00 77 1006.6
20260906090501 65 12 0.0 2.0 0.00 0.00 0.00 77 1006.5
20260906090001 65 12 0.0 2.0 0.00 0.00 0.00 77 1006.4
20260906085602 65 12 0.0 2.0 0.00 0.00 0.00 76 1006.3
20260906085059 65 348 0.0 3.0 0.00 0.00 0.00 77 1006.3
20260906084659 65 347 0.0 3.0 0.00 0.00 0.00 76 1006.2
20260906084102 65 238 0.0 3.0 0.00 0.00 0.00 76 1006.3
20260906083558 65 64 1.0 3.0 0.00 0.00 0.00 75 1006.2
20260906083100 65 346 0.0 4.0 0.00 0.00 0.00 74 1006.2
20260906082556 65 24 1.0 4.0 0.00 0.00 0.00 73 1006.3
20260906082056 65 12 0.0 3.0 0.00 0.00 0.00 73 1006.4
20260906081556 65 9 1.0 4.0 0.00 0.00 0.00 72 1006.5
20260906081056 65 26 1.0 6.0 0.00 0.00 0.00 70 1006.5
20260906080555 66 32 2.0 6.0 0.00 0.00 0.00 68 1006.5
20260906080056 66 32 1.0 4.0 0.00 0.00 0.00 66 1006.7
20260906075553 65 19 1.0 3.0 0.00 0.00 0.00 66 1006.7
20260906075052 65 9 0.0 3.0 0.00 0.00 0.00 65 1006.6
20260906074553 65 34 1.0 2.0 0.00 0.00 0.00 62 1006.6
20260906074050 65 333 0.0 3.0 0.00 0.00 0.00 63 1006.6
20260906073549 66 360 0.0 3.0 0.00 0.00 0.00 61 1006.5
20260906073048 67 233 0.0 3.0 0.00 0.00 0.00 60 1006.6
20260906072548 66 231 0.0 2.0 0.00 0.00 0.00 61 1006.5
20260906072049 66 244 0.0 2.0 0.00 0.00 0.00 61 1006.4
20260906071549 66 228 0.0 2.0 0.00 0.00 0.00 61 1006.5
20260906071048 66 236 0.0 1.0 0.00 0.00 0.00 63 1006.3
20260906070547 66 236 0.0 1.0 0.00 0.00 0.00 61 1006.4
20260906070046 66 236 0.0 1.0 0.00 0.00 0.00 63 1006.4
20260906065547 67 237 0.0 0.0 0.00 0.00 0.00 60 1006.5
20260906065043 67 236 0.0 0.0 0.00 0.00 0.00 61 1006.5
20260906064543 68 237 0.0 1.0 0.00 0.00 0.00 62 1006.5
20260906064042 68 246 0.0 1.0 0.00 0.00 0.00 60 1006.6
20260906063540 68 246 0.0 2.0 0.00 0.00 0.00 58 1006.5
20260906063040 68 252 0.0 2.0 0.00 0.00 0.00 57 1006.3
20260906062540 68 275 0.0 2.0 0.00 0.00 0.00 56 1006.1
20260906062038 69 313 0.0 2.0 0.00 0.00 0.00 56 1005.9
20260906061537 70 318 0.0 2.0 0.00 0.00 0.00 53 1005.9
20260906061039 70 267 0.0 1.0 0.00 0.00 0.00 52 1006.1
20260906060534 69 232 0.0 2.0 0.00 0.00 0.00 52 1006.2
20260906060033 69 232 1.0 2.0 0.00 0.00 0.00 52 1006.3
20260906055532 70 360 0.0 1.0 0.00 0.00 0.00 50 1006.4
20260906055033 70 360 0.0 2.0 0.00 0.00 0.00 49 1006.6
20260906054538 70 280 1.0 2.0 0.00 0.00 0.00 48 1006.6
20260906054032 71 277 0.0 1.0 0.00 0.00 0.00 47 1006.5
20260906053531 71 274 0.0 3.0 0.00 0.00 0.00 48 1006.5
20260906053031 71 275 0.0 3.0 0.00 0.00 0.00 47 1006.6
20260906052531 71 267 0.0 1.0 0.00 0.00 0.00 48 1006.7
20260906052031 71 246 0.0 1.0 0.00 0.00 0.00 49 1006.9
20260906051530 71 274 0.0 1.0 0.00 0.00 0.00 48 1006.8
20260906051031 72 271 0.0 2.0 0.00 0.00 0.00 47 1006.6
20260906050531 72 267 0.0 3.0 0.00 0.00 0.00 47 1006.5
20260906050029 71 271 0.0 3.0 0.00 0.00 0.00 47 1006.3
20260906045532 71 278 0.0 3.0 0.00 0.00 0.00 47 1006.4
20260906045030 71 263 0.0 3.0 0.00 0.00 0.00 47 1006.4
20260906044528 71 267 1.0 2.0 0.00 0.00 0.00 47 1006.3
20260906044029 71 335 0.0 1.0 0.00 0.00 0.00 46 1006.0
20260906043526 72 335 0.0 1.0 0.00 0.00 0.00 46 1005.7
20260906043026 72 336 0.0 1.0 0.00 0.00 0.00 46 1005.6
20260906042527 72 338 0.0 3.0 0.00 0.00 0.00 45 1005.6
20260906042126 72 338 1.0 4.0 0.00 0.00 0.00 45 1005.5
20260906041526 72 360 1.0 4.0 0.00 0.00 0.00 45 1005.5
20260906041025 72 312 0.0 3.0 0.00 0.00 0.00 45 1005.4
20260906040524 72 150 1.0 3.0 0.00 0.00 0.00 45 1005.5
20260906040025 71 170 0.0 3.0 0.00 0.00 0.00 45 1005.2
20260906035524 72 176 0.0 2.0 0.00 0.00 0.00 44 1005.2
20260906035025 73 178 0.0 1.0 0.00 0.00 0.00 43 1005.2
20260906034524 73 168 0.0 1.0 0.00 0.00 0.00 43 1005.3
20260906034024 73 154 0.0 3.0 0.00 0.00 0.00 42 1005.2
20260906033523 73 121 0.0 3.0 0.00 0.00 0.00 42 1005.1
20260906033023 74 273 0.0 2.0 0.00 0.00 0.00 42 1005.0
20260906032525 74 279 0.0 2.0 0.00 0.00 0.00 41 1005.0
20260906032026 74 360 1.0 2.0 0.00 0.00 0.00 41 1004.8
20260906031523 74 360 0.0 1.0 0.00 0.00 0.00 42 1004.7
20260906031025 74 360 0.0 2.0 0.00 0.00 0.00 42 1004.6
20260906030522 75 360 0.0 4.0 0.00 0.00 0.00 40 1004.5
20260906030021 75 360 3.0 4.0 0.00 0.00 0.00 40 1004.4
20260906025521 76 360 0.0 2.0 0.00 0.00 0.00 39 1004.2
20260906025020 76 360 0.0 5.0 0.00 0.00 0.00 38 1004.2
20260906024519 76 360 2.0 5.0 0.00 0.00 0.00 38 1004.3
20260906024019 77 360 0.0 4.0 0.00 0.00 0.00 39 1004.2
20260906023519 77 360 1.0 9.0 0.00 0.00 0.00 38 1004.3
20260906023018 78 360 4.0 9.0 0.00 0.00 0.00 38 1004.5
20260906022518 78 360 0.0 1.0 0.00 0.00 0.00 36 1004.3
20260906022018 78 360 0.0 1.0 0.00 0.00 0.00 36 1004.3
20260906021533 78 360 0.0 3.0 0.00 0.00 0.00 35 1004.1
20260906021018 79 360 1.0 3.0 0.00 0.00 0.00 35 1004.0
20260906020522 79 360 0.0 2.0 0.00 0.00 0.00 34 1003.9
20260906020020 79 360 0.0 2.0 0.00 0.00 0.00 34 1004.0
20260906015517 79 360 0.0 2.0 0.00 0.00 0.00 34 1003.8
20260906015017 80 231 0.0 1.0 0.00 0.00 0.00 34 1003.7
20260906014520 80 225 0.0 1.0 0.00 0.00 0.00 34 1003.7
20260906014020 80 223 0.0 2.0 0.00 0.00 0.00 34 1003.6
20260906013516 81 173 0.0 2.0 0.00 0.00 0.00 33 1003.6
20260906013032 81 144 0.0 2.0 0.00 0.00 0.00 33 1003.6
20260906012519 82 148 0.0 2.0 0.00 0.00 0.00 33 1003.6
20260906012017 82 360 0.0 2.0 0.00 0.00 0.00 33 1003.6
20260906011516 83 360 0.0 2.0 0.00 0.00 0.00 33 1003.5
20260906011016 83 360 0.0 2.0 0.00 0.00 0.00 32 1003.5
20260906010516 83 360 0.0 2.0 0.00 0.00 0.00 31 1003.6
20260906010018 84 23 0.0 2.0 0.00 0.00 0.00 31 1003.5
20260906005516 84 22 0.0 3.0 0.00 0.00 0.00 30 1003.5
20260906005015 85 19 1.0 3.0 0.00 0.00 0.00 29 1003.4
20260906004515 85 17 0.0 4.0 0.00 0.00 0.00 29 1003.4
20260906004014 85 16 1.0 4.0 0.00 0.00 0.00 29 1003.3
20260906003514 86 17 1.0 5.0 0.00 0.00 0.00 29 1003.3
20260906003020 86 15 2.0 5.0 0.00 0.00 0.00 29 1003.4
20260906002514 86 15 1.0 4.0 0.00 0.00 0.00 29 1003.3
20260906002014 86 42 0.0 3.0 0.00 0.00 0.00 29 1003.3
20260906001515 87 28 1.0 4.0 0.00 0.00 0.00 28 1003.3
20260906001013 87 20 1.0 4.0 0.00 0.00 0.00 27 1003.2
20260906000513 88 32 0.0 2.0 0.00 0.00 0.00 28 1003.3
20260906000014 88 17 0.0 3.0 0.00 0.00 0.00 27 1003.2
20260905235513 88 15 1.0 3.0 0.00 0.00 0.00 27 1003.2
20260905235013 89 15 0.0 2.0 0.00 0.00 0.00 27 1003.2
20260905234613 89 14 0.0 2.0 0.00 0.00 0.00 26 1003.0
20260905234014 90 17 1.0 2.0 0.00 0.00 0.00 25 1003.1
20260905233515 90 16 0.0 2.0 0.00 0.00 0.00 25 1003.0
20260905233017 91 22 0.0 2.0 0.00 0.00 0.00 24 1003.1
20260905232511 92 226 0.0 2.0 0.00 0.00 0.00 23 1003.1
20260905232012 92 262 0.0 2.0 0.00 0.00 0.00 22 1003.0
20260905231512 93 236 0.0 4.0 0.00 0.00 0.00 22 1003.1
20260905231011 93 235 1.0 4.0 0.00 0.00 0.00 22 1003.0
20260905230512 94 230 0.0 2.0 0.00 0.00 0.00 19 1003.0
20260905230011 94 230 0.0 3.0 0.00 0.00 0.00 21 1002.9
20260905225511 94 214 1.0 4.0 0.00 0.00 0.00 19 1002.8
20260905225012 94 244 1.0 4.0 0.00 0.00 0.00 21 1002.8
20260905224515 94 229 0.0 3.0 0.00 0.00 0.00 21 1002.9
20260905224010 94 248 1.0 3.0 0.00 0.00 0.00 21 1002.9
20260905223512 93 360 0.0 5.0 0.00 0.00 0.00 18 1002.9
20260905223008 94 14 3.0 5.0 0.00 0.00 0.00 19 1003.0
20260905222509 94 57 2.0 8.0 0.00 0.00 0.00 20 1002.9
20260905222007 94 5 1.0 8.0 0.00 0.00 0.00 20 1003.0
20260905221511 94 11 3.0 8.0 0.00 0.00 0.00 19 1002.9
20260905221008 95 17 2.0 8.0 0.00 0.00 0.00 21 1002.9
20260905220505 95 25 2.0 5.0 0.00 0.00 0.00 20 1003.2
20260905220004 94 235 0.0 9.0 0.00 0.00 0.00 22 1003.2
20260905215504 94 19 4.0 9.0 0.00 0.00 0.00 20 1003.2
20260905215003 94 242 1.0 4.0 0.00 0.00 0.00 22 1003.3
20260905214502 94 223 1.0 8.0 0.00 0.00 0.00 22 1003.2
20260905214002 94 32 3.0 9.0 0.00 0.00 0.00 20 1003.3
20260905213503 94 14 4.0 9.0 0.00 0.00 0.00 22 1003.4
20260905213001 94 5 1.0 5.0 0.00 0.00 0.00 22 1003.4
20260905212603 94 316 2.0 7.0 0.00 0.00 0.00 22 1003.5
20260905212100 94 61 3.0 7.0 0.00 0.00 0.00 20 1003.6
20260905211609 94 28 3.0 9.0 0.00 0.00 0.00 21 1003.6
20260905211100 94 9 5.0 9.0 0.00 0.00 0.00 21 1003.7
20260905210557 94 43 3.0 8.0 0.00 0.00 0.00 19 1003.8
20260905210109 93 20 1.0 5.0 0.00 0.00 0.00 20 1003.8
20260905205555 93 38 1.0 8.0 0.00 0.00 0.00 20 1003.9
20260905205055 93 5 4.0 9.0 0.00 0.00 0.00 21 1004.0
20260905204554 93 216 2.0 11.0 0.00 0.00 0.00 23 1004.0
20260905204052 92 58 5.0 11.0 0.00 0.00 0.00 21 1004.1
20260905203554 92 103 6.0 10.0 0.00 0.00 0.00 20 1004.1
20260905203052 92 68 5.0 11.0 0.00 0.00 0.00 22 1004.2
20260905202551 93 48 6.0 11.0 0.00 0.00 0.00 24 1004.3
20260905202052 92 59 5.0 10.0 0.00 0.00 0.00 20 1004.2
20260905201552 92 65 4.0 8.0 0.00 0.00 0.00 19 1004.3
20260905201051 92 333 4.0 8.0 0.00 0.00 0.00 21 1004.3
20260905200554 93 345 2.0 7.0 0.00 0.00 0.00 22 1004.4
20260905200055 92 35 3.0 10.0 0.00 0.00 0.00 22 1004.4
20260905195550 90 51 2.0 12.0 0.00 0.00 0.00 24 1004.5
20260905195049 89 36 6.0 11.0 0.00 0.00 0.00 21 1004.6
20260905194549 89 5 5.0 9.0 0.00 0.00 0.00 22 1004.6
20260905194048 90 55 5.0 9.0 0.00 0.00 0.00 23 1004.6
20260905193548 90 15 3.0 9.0 0.00 0.00 0.00 25 1004.7
20260905193051 91 21 4.0 9.0 0.00 0.00 0.00 22 1004.7
20260905192548 91 28 4.0 7.0 0.00 0.00 0.00 23 1004.7
20260905192048 91 355 1.0 8.0 0.00 0.00 0.00 22 1004.8
20260905191548 91 43 3.0 8.0 0.00 0.00 0.00 23 1004.9
20260905191047 91 42 3.0 10.0 0.00 0.00 0.00 24 1004.9
20260905190550 91 331 4.0 13.0 0.00 0.00 0.00 23 1004.9
20260905190056 91 30 4.0 15.0 0.00 0.00 0.00 23 1005.0
20260905185547 91 355 9.0 15.0 0.00 0.00 0.00 21 1004.9
20260905185046 92 34 8.0 12.0 0.00 0.00 0.00 22 1005.0
20260905184547 91 37 6.0 11.0 0.00 0.00 0.00 24 1005.1
20260905184044 90 13 4.0 12.0 0.00 0.00 0.00 25 1005.1
20260905183544 90 45 8.0 12.0 0.00 0.00 0.00 22 1005.3
20260905183044 90 34 8.0 12.0 0.00 0.00 0.00 24 1005.4
20260905182542 90 5 5.0 9.0 0.00 0.00 0.00 23 1005.5
20260905182042 89 38 3.0 8.0 0.00 0.00 0.00 23 1005.4
20260905181547 90 22 1.0 6.0 0.00 0.00 0.00 23 1005.5
20260905181042 90 69 2.0 7.0 0.00 0.00 0.00 22 1005.6
20260905180542 90 360 3.0 8.0 0.00 0.00 0.00 23 1005.6
20260905180042 89 71 4.0 6.0 0.00 0.00 0.00 23 1005.7
20260905175542 88 360 2.0 8.0 0.00 0.00 0.00 25 1005.8
20260905175037 88 42 4.0 8.0 0.00 0.00 0.00 26 1005.9
20260905174540 88 15 2.0 6.0 0.00 0.00 0.00 26 1005.9